N4MRV-1 Weather Reports


time (UTC)temp
F
wind
direction
speed
knots
gust
knots
rain 1hr
in
rain 24hr
in
rain mn
in
humidity
%
barometer
mb
20260905100017 70 0.0 0.0 0.00 0.88 0.00 95 1011.2
20260905094517 70 0.0 0.0 0.00 0.88 0.00 95 1010.9
20260905093016 70 0.0 0.0 0.00 0.88 0.00 95 1011.1
20260905091516 70 0.0 0.0 0.00 0.88 0.00 95 1011.0
20260905090017 70 0.0 0.0 0.00 0.88 0.00 95 1010.8
20260905084516 70 0.0 0.0 0.00 0.88 0.00 95 1011.0
20260905083016 70 0.0 0.0 0.00 0.88 0.00 95 1010.9
20260905081536 70 0.0 0.0 0.00 0.88 0.00 95 1011.2
20260905080016 70 0.0 0.0 0.00 0.88 0.00 95 1011.3
20260905074536 70 0.0 0.0 0.00 0.88 0.00 95 1011.4
20260905073016 71 0.0 0.0 0.00 0.88 0.00 95 1011.6
20260905071516 71 0.0 0.9 0.00 0.88 0.00 95 1011.8
20260905070016 71 0.0 1.7 0.00 0.88 0.00 95 1011.7
20260905064516 71 0.0 0.9 0.00 0.88 0.00 95 1011.7
20260905063016 71 0.0 0.9 0.00 0.88 0.00 95 1012.0
20260905061516 71 0.0 1.7 0.00 0.88 0.00 95 1012.1
20260905060016 71 0.0 1.7 0.00 0.88 0.00 95 1012.3
20260905054516 71 0.0 0.9 0.00 0.88 0.00 95 1012.8
20260905053016 71 0.0 1.7 0.00 0.88 0.00 95 1012.9
20260905051516 71 0.0 0.0 0.00 0.88 0.00 95 1013.1
20260905050016 71 0.0 0.0 0.00 0.88 0.00 95 1013.5
20260905044516 71 0.0 0.0 0.00 0.88 0.00 95 1013.7
20260905043016 72 0.0 0.0 0.00 0.88 0.00 95 1013.8
20260905041516 72 0.0 0.0 0.00 0.88 0.00 95 1013.9
20260905040016 72 0.0 0.0 0.00 0.88 0.88 95 1013.9
20260905034516 72 0.0 0.0 0.00 0.88 0.88 95 1014.0
20260905033017 72 0.0 0.0 0.00 0.88 0.88 95 1013.9
20260905031516 72 0.0 0.0 0.00 0.88 0.88 95 1013.8
20260905030017 71 0.0 0.0 0.00 0.88 0.88 95 1013.7
20260905024517 72 0.0 0.0 0.00 0.88 0.88 95 1013.8
20260905023016 72 0.0 0.0 0.00 0.88 0.88 94 1014.0
20260905021516 72 0.0 0.0 0.00 0.88 0.88 94 1014.0
20260905020016 72 0.0 0.0 0.00 0.88 0.88 94 1013.9
20260905014516 72 0.0 0.0 0.00 0.88 0.88 94 1013.8
20260905013016 72 0.0 0.0 0.00 0.88 0.88 94 1013.5
20260905011516 72 0.0 0.0 0.00 0.88 0.88 94 1012.9
20260905010016 72 0.0 0.0 0.00 0.88 0.88 94 1012.6
20260905004516 72 0.0 0.0 0.00 0.88 0.88 94 1012.9
20260905003016 72 0.0 1.7 0.00 0.88 0.88 94 1012.5
20260905001516 72 0.0 0.9 0.01 0.88 0.88 93 1012.7
20260905000036 73 0.0 0.9 0.01 0.88 0.88 93 1012.5
20260904234516 73 0.0 0.9 0.01 0.88 0.88 93 1012.6
20260904233016 73 248 0.9 3.5 0.01 0.88 0.88 93 1012.4
20260904231536 73 0.0 1.7 0.00 0.87 0.87 93 1012.6
20260904230036 73 0.0 1.7 0.00 0.87 0.87 92 1013.2
20260904224516 73 0.0 0.9 0.02 0.87 0.87 92 1013.6
20260904223016 73 0.0 2.6 0.07 0.87 0.87 91 1014.0
20260904221516 74 315 1.7 6.1 0.72 0.87 0.87 89 1014.5
20260904220036 74 0.0 2.6 0.87 0.87 0.87 87 1013.9
20260904214556 76 0 1.7 7.0 0.85 0.85 0.85 84 1013.1
20260904213016 79 293 4.3 22.6 0.80 0.80 0.80 79 1014.5
20260904211516 88 180 2.6 16.5 0.15 0.15 0.15 66 1014.3
20260904210016 92 0.0 1.7 0.00 0.00 0.00 63 1012.1
20260904204516 93 0.0 1.7 0.00 0.00 0.00 64 1011.8
20260904203036 92 0.0 1.7 0.00 0.00 0.00 62 1011.7
20260904201516 92 180 0.9 2.6 0.00 0.00 0.00 62 1011.7
20260904200016 92 0.0 1.7 0.00 0.00 0.00 62 1011.9
20260904194516 92 0.0 0.9 0.00 0.00 0.00 64 1012.4
20260904193016 92 0.0 0.9 0.00 0.00 0.00 65 1012.8
20260904191516 93 293 0.9 2.6 0.00 0.00 0.00 65 1012.8
20260904190015 92 45 0.9 5.2 0.00 0.00 0.00 61 1013.0
20260904184516 92 270 0.9 2.6 0.00 0.00 0.00 63 1013.3
20260904183016 92 180 0.9 1.7 0.00 0.00 0.00 62 1013.6
20260904181515 92 315 0.9 3.5 0.00 0.00 0.00 61 1013.8
20260904180016 91 45 0.9 3.5 0.00 0.00 0.00 62 1014.0
20260904174515 91 293 0.9 3.5 0.00 0.00 0.00 63 1014.2
20260904173015 91 315 0.9 1.7 0.00 0.00 0.00 64 1014.3
20260904171515 91 293 0.9 5.2 0.00 0.00 0.00 63 1014.3
20260904170056 91 293 0.9 5.2 0.00 0.00 0.00 62 1014.3
20260904164515 92 225 0.9 2.6 0.00 0.00 0.00 62 1014.4
20260904163015 92 248 0.9 3.5 0.00 0.00 0.00 62 1014.5
20260904161515 92 293 0.9 2.6 0.00 0.00 0.00 63 1014.6
20260904160015 92 338 0.9 5.2 0.00 0.00 0.00 65 1014.8
20260904154515 92 0.0 3.5 0.00 0.00 0.00 65 1015.0
20260904153035 91 248 0.9 7.0 0.00 0.00 0.00 67 1015.0
20260904151515 90 293 0.9 3.5 0.00 0.00 0.00 71 1014.9
20260904150017 87 293 0.9 2.6 0.00 0.00 0.00 76 1014.9
20260904144517 85 23 0.9 2.6 0.00 0.00 0.00 79 1014.8
20260904143017 84 338 0.9 3.5 0.00 0.00 0.00 82 1014.6
20260904141537 82 338 0.9 4.3 0.00 0.00 0.00 85 1014.6
20260904140017 81 0 0.9 4.3 0.00 0.00 0.00 86 1014.6
20260904134517 80 315 0.9 4.3 0.00 0.00 0.00 87 1014.5
20260904133017 79 0.0 2.6 0.00 0.00 0.00 89 1014.4
20260904131517 77 248 0.9 1.7 0.00 0.00 0.00 91 1014.5
20260904130017 76 0.0 1.7 0.00 0.00 0.00 94 1014.4
20260904124537 75 0.0 0.9 0.00 0.00 0.00 94 1014.5
20260904123017 75 0.0 0.9 0.00 0.00 0.00 94 1014.4
20260904121517 74 0.0 0.9 0.00 0.00 0.00 93 1014.5
20260904120016 73 0.0 0.9 0.00 0.00 0.00 93 1014.6
20260904114517 73 0.0 0.0 0.00 0.00 0.00 92 1014.3
20260904113017 73 0.0 0.0 0.00 0.00 0.00 91 1014.3
20260904111537 73 0.0 0.0 0.00 0.00 0.00 91 1014.4
20260904110017 73 0.0 0.9 0.00 0.00 0.00 91 1014.4
20260904104517 73 0.0 0.0 0.00 0.00 0.00 89 1014.2
20260904103017 73 0.0 0.9 0.00 0.00 0.00 90 1014.2
20260904101516 74 0.0 0.0 0.00 0.00 0.00 89 1014.3